This is the latest recevied weather packets stored in our database for station/object DL1DH-17. If no packets are shown the sender has not sent any weather packets the latest 10 day(s).
| Time | Temp. | Humidity | Pressure | Rain* | Wind** | Luminosity | Snow |
|---|---|---|---|---|---|---|---|
| 1778305423 | 6.67° C | 84% | 980 hPa | - | - | - | - |
| 1778304583 | 6.67° C | 84% | 979.9 hPa | - | - | - | - |
| 1778303742 | 7.22° C | 84% | 979.8 hPa | - | - | - | - |
| 1778302902 | 6.67° C | 85% | 979.7 hPa | - | - | - | - |
| 1778302062 | 6.67° C | 85% | 979.7 hPa | - | - | - | - |
| 1778301222 | 6.67° C | 85% | 979.6 hPa | - | - | - | - |
| 1778300382 | 6.11° C | 85% | 979.5 hPa | - | - | - | - |
| 1778299542 | 6.11° C | 85% | 979.5 hPa | - | - | - | - |
| 1778298702 | 6.11° C | 85% | 979.5 hPa | - | - | - | - |
| 1778297862 | 6.11° C | 85% | 979.5 hPa | - | - | - | - |
| 1778297022 | 5.56° C | 85% | 979.4 hPa | - | - | - | - |
| 1778296182 | 6.11° C | 84% | 979.6 hPa | - | - | - | - |
| 1778295342 | 6.11° C | 84% | 979.4 hPa | - | - | - | - |
| 1778294501 | 6.11° C | 84% | 979.5 hPa | - | - | - | - |
| 1778293661 | 6.11° C | 85% | 979.7 hPa | - | - | - | - |
| 1778292821 | 6.11° C | 84% | 979.6 hPa | - | - | - | - |
| 1778291981 | 6.11° C | 84% | 979.5 hPa | - | - | - | - |
| 1778291141 | 6.11° C | 83% | 979.6 hPa | - | - | - | - |
| 1778290301 | 6.67° C | 83% | 979.6 hPa | - | - | - | - |
| 1778289460 | 6.67° C | 83% | 979.6 hPa | - | - | - | - |
| 1778288620 | 6.67° C | 82% | 979.6 hPa | - | - | - | - |
| 1778287780 | 7.22° C | 82% | 979.6 hPa | - | - | - | - |
| 1778286940 | 7.22° C | 82% | 979.5 hPa | - | - | - | - |
| 1778286100 | 7.22° C | 81% | 979.4 hPa | - | - | - | - |
| 1778285260 | 7.78° C | 81% | 979.6 hPa | - | - | - | - |
* Rain since midnight (hover to see other rain measurements)
** Current wind speed in m/s (hover to see current wind gust speed)